[[{"header":{"parameterUnit":"m.s-1","parameterCategory":1,"la1":30.2991,"la2":30.254,"lo1":-89.0895,"lo2":-89.0444,"dy":0.0017,"dx":0.0017,"nx":28,"ny":28,"refTime":"2025-08-01T03:00:00:Z","depth":0,"parameterNumber":2,"parameterNumberName":"U-component_of_WINDS"},"data":[0,0,0,0,0,0,0,0,0,0,0,0,0,0,0,0,0,0,0,0,0,0,0,0,0,0,0,0,0,0,0,0,0,0,0,0,0,0,0,0,0,0,0,0,0,0,0,0,0,0,0,0,0,0,0,0,0,0,0.3993,0.3995,0,0.41,0.4101,0.4103,0.4088,0.4087,0.4085,0.4083,0.4198,0.4202,0.4207,0,0,0,0,0,0,0,0,0,0,0,0,0,0.3782,0.3786,0.3993,0.3995,0.3996,0.41,0.4102,0.4103,0.4089,0.4087,0.4084,0.4082,0.4196,0.4202,0.4207,0,0,0,0,0,0,0,0,0,0,0,0,0,0.388,0.3788,0.3993,0.4001,0.4003,0.41,0.4102,0.4103,0.4089,0.4087,0.4084,0.4081,0.4194,0.4201,0.4208,0.4305,0,0,0.423,0.4233,0,0,0,0,0,0,0,0,0.3875,0.3888,0.3999,0.4001,0.4003,0.4078,0.4069,0.4171,0.409,0.4057,0.4083,0.408,0.416,0.417,0.4196,0.431,0.4315,0.423,0.4235,0.4238,0.424,0,0,0,0,0,0,0,0.3868,0.3883,0.4036,0.4,0.4003,0.4001,0.4012,0.4088,0.4122,0.4059,0.4059,0.4071,0.4161,0.4189,0.4199,0.4317,0.423,0.4236,0.4241,0.4243,0.4518,0.452,0,0,0,0,0,0,0.3858,0.3878,0.4032,0.4039,0.3931,0.4007,0.402,0.4057,0.4121,0.4129,0.4073,0.407,0.4179,0.419,0.4203,0.4321,0.4237,0.4244,0.4248,0.4515,0.4518,0.4522,0,0,0,0,0,0,0.3854,0.3872,0.4028,0.3958,0.3978,0.4014,0.4056,0.406,0.4088,0.4132,0.4138,0.4096,0.4177,0.4193,0.428,0.4325,0.4247,0.4254,0.4511,0.4516,0.452,0.4558,0,0,0,0,0,0,0.3848,0.3871,0.3906,0.3959,0.3982,0.4102,0.4059,0.4064,0.41,0.4097,0.4154,0.4162,0.4176,0.4269,0.4287,0.4333,0.4259,0.4507,0.4513,0.4518,0.4553,0.4564,0.4573,0,0,0,0,0,0.384,0.3914,0.3908,0.3927,0.4027,0.4104,0.4117,0.4131,0.4104,0.4141,0.4169,0.416,0.4317,0.4278,0.4298,0.4347,0.4504,0.4511,0.4518,0.4549,0.4562,0.4572,0,0,0,0,0,0,0.3867,0.3921,0.3915,0.4008,0.4051,0.4102,0.4149,0.4144,0.4198,0.4193,0.4209,0.4222,0.431,0.4337,0.4293,0.4445,0.4407,0.4418,0.4424,0.4436,0.4446,0.4438,0.4265,0,0,0,0,0,0.3883,0.394,0.3985,0.4062,0.4084,0.4113,0.4147,0.4154,0.42,0.4219,0.4254,0.4301,0.4361,0.44,0.4458,0.4557,0.457,0.4601,0.4611,0.4618,0.4628,0.4684,0.4698,0.4544,0.4544,0.4544,0,0,0.3918,0.3955,0.399,0.4068,0.4103,0.4163,0.4128,0.4193,0.4239,0.423,0.4313,0.434,0.4394,0.4488,0.4531,0.4513,0.4674,0.4627,0.4633,0.4639,0.4692,0.4707,0.472,0.4549,0.4548,0.4547,0,0,0.4013,0.4045,0.4114,0.4149,0.4201,0.422,0.4237,0.4288,0.4305,0.4389,0.4384,0.4439,0.4542,0.4581,0.4614,0.4724,0.4718,0.4743,0.4794,0.4848,0.486,0.4871,0.4911,0.4925,0.4752,0.4752,0.4752,0,0.405,0.4138,0.415,0.4216,0.4251,0.4244,0.4315,0.4349,0.4419,0.4444,0.4423,0.4552,0.4588,0.4691,0.4718,0.4745,0.4766,0.4736,0.4857,0.4868,0.4879,0.4917,0.4932,0.4755,0.4754,0.4754,0.4754,0,0.4182,0.4244,0.4293,0.4359,0.44,0.4468,0.4491,0.4532,0.4536,0.4557,0.4644,0.4686,0.4753,0.4778,0.4783,0.4883,0.487,0.4853,0.4815,0.4896,0.4932,0.4947,0.4759,0.4758,0.4757,0.4756,0,0,0.4296,0.4367,0.4386,0.4416,0.4474,0.4522,0.4591,0.4654,0.469,0.4738,0.4797,0.4884,0.4869,0.4907,0.4916,0.4963,0.5049,0.4941,0.4942,0.496,0.5164,0.5176,0.5193,0.5045,0.5048,0.505,0.5159,0,0.4397,0.4516,0.4529,0.4636,0.4694,0.4689,0.4749,0.4792,0.4814,0.4868,0.4893,0.4955,0.493,0.4953,0.4999,0.5029,0.509,0.5021,0.5102,0.5105,0.5089,0.5212,0.5226,0.5327,0.5174,0.5176,0.5178,0,0.453,0.4581,0.4693,0.4744,0.4769,0.4822,0.4882,0.4933,0.4983,0.4996,0.5038,0.5041,0.5114,0.5073,0.5174,0.5126,0.516,0.518,0.5184,0.5193,0.5146,0.5225,0.5359,0.5375,0.52,0.5199,0.5197,0,0.4603,0.47,0.478,0.4806,0.4866,0.4904,0.4932,0.4978,0.5016,0.5069,0.5094,0.5156,0.519,0.5238,0.5258,0.5226,0.5359,0.5319,0.5373,0.5373,0.5402,0.54,0.5544,0.5423,0.5422,0.5422,0.5422,0,0.4714,0.4783,0.4813,0.4863,0.4941,0.4956,0.5033,0.506,0.5101,0.5157,0.5157,0.521,0.5233,0.529,0.5306,0.5388,0.5403,0.5417,0.5421,0.5418,0.5416,0.5441,0.5434,0.5426,0.5425,0.5424,0.5424,0,0.4809,0.4831,0.4918,0.4969,0.4983,0.5039,0.5083,0.5132,0.5153,0.5224,0.5241,0.5276,0.5343,0.5368,0.545,0.5461,0.5556,0.5554,0.5539,0.554,0.5593,0.5588,0.5759,0.5782,0.5645,0.5646,0.5647,0,0.4878,0.4931,0.4987,0.5024,0.5052,0.5112,0.515,0.5168,0.5208,0.5269,0.5311,0.5377,0.5431,0.5538,0.5572,0.5635,0.5635,0.569,0.5645,0.564,0.5637,0.5634,0.564,0.5699,0.57,0.5702,0.5703,0,0.5,0.5009,0.5063,0.5123,0.5168,0.5216,0.5262,0.5293,0.5317,0.5363,0.5431,0.5473,0.5556,0.5622,0.5687,0.5717,0.5715,0.5717,0.5733,0.573,0.572,0.5727,0.5563,0.5713,0.5712,0.5711,0.571,0.571,0.5085,0.5132,0.5179,0.5241,0.5277,0.5321,0.5369,0.5397,0.5453,0.5521,0.5529,0.5602,0.5652,0.5738,0.5771,0.583,0.5815,0.5838,0.5844,0.585,0.5854,0.5709,0.5842,0.5841,0.5841,0.5841,0.5841,0,0.5208,0.5237,0.5294,0.5358,0.5407,0.5399,0.545,0.5492,0.5555,0.5601,0.5654,0.5733,0.5798,0.5836,0.5902,0.5941,0.5942,0.5958,0.5956,0.5963,0.5863,0.5843,0.5956,0.5956,0.5956,0.5956,0.5956,0.5956,0.5277,0.5357,0.5371,0.547,0.55,0.5571,0.5601,0.5642,0.5678,0.5766,0.5819,0.5843,0.5887,0.5956,0.6015,0.6025,0.605,0.6067,0.6076,0.5982,0.597,0.5958,0.594,0.6072,0.6072,0.6171,0.6172,0.6173]},{"header":{"parameterUnit":"m.s-1","parameterCategory":1,"la1":30.2991,"la2":30.254,"lo1":-89.0895,"lo2":-89.0444,"dy":0.0017,"dx":0.0017,"nx":28,"ny":28,"refTime":"2025-08-01T03:00:00:Z","depth":0,"parameterNumber":3,"parameterNumberName":"V-component_of_WINDS"},"data":[0,0,0,0,0,0,0,0,0,0,0,0,0,0,0,0,0,0,0,0,0,0,0,0,0,0,0,0,0,0,0,0,0,0,0,0,0,0,0,0,0,0,0,0,0,0,0,0,0,0,0,0,0,0,0,0,0,0,0.7612,0.7614,0,0.7737,0.7738,0.774,0.7758,0.7757,0.7756,0.7754,0.7885,0.7889,0.7894,0,0,0,0,0,0,0,0,0,0,0,0,0,0.7389,0.7393,0.7612,0.7614,0.7615,0.7737,0.7739,0.774,0.7758,0.7757,0.7755,0.7754,0.7884,0.7889,0.7894,0,0,0,0,0,0,0,0,0,0,0,0,0,0.7497,0.7395,0.7612,0.7639,0.7642,0.7736,0.7739,0.7741,0.7758,0.7757,0.7755,0.7753,0.7882,0.7888,0.7895,0.7972,0,0,0.7916,0.7919,0,0,0,0,0,0,0,0,0.7491,0.7506,0.7633,0.7637,0.7641,0.773,0.7708,0.7818,0.7759,0.7714,0.7754,0.7752,0.7835,0.7846,0.7873,0.7978,0.7984,0.7917,0.7921,0.7924,0.7926,0,0,0,0,0,0,0,0.7484,0.75,0.7662,0.7635,0.764,0.7645,0.7658,0.7729,0.7783,0.7718,0.772,0.7734,0.7837,0.7866,0.7876,0.7986,0.7916,0.7922,0.7927,0.7929,0.8156,0.8158,0,0,0,0,0,0,0.7471,0.7494,0.7658,0.7665,0.756,0.765,0.7665,0.7703,0.7782,0.7793,0.7735,0.7734,0.7855,0.7868,0.7881,0.7974,0.7924,0.793,0.7934,0.8154,0.8157,0.8159,0,0,0,0,0,0,0.7466,0.7486,0.7653,0.758,0.7602,0.7656,0.7699,0.7707,0.7736,0.7795,0.7805,0.7756,0.7855,0.7871,0.7948,0.7979,0.7933,0.7939,0.8152,0.8155,0.8158,0.8162,0,0,0,0,0,0,0.746,0.7484,0.7514,0.7581,0.7605,0.7718,0.7701,0.771,0.7748,0.7747,0.7817,0.7827,0.7855,0.7938,0.7955,0.7987,0.7945,0.8149,0.8153,0.8157,0.8159,0.8164,0.8169,0,0,0,0,0,0.7452,0.7512,0.7515,0.7535,0.7644,0.772,0.7734,0.7764,0.775,0.778,0.7818,0.7824,0.7972,0.7946,0.7965,0.8,0.8148,0.8152,0.8156,0.8157,0.8163,0.8169,0,0,0,0,0,0,0.7449,0.7521,0.7526,0.7609,0.7658,0.7723,0.7762,0.7771,0.7826,0.7824,0.7859,0.7875,0.7949,0.7982,0.7951,0.8076,0.8059,0.8067,0.8052,0.8059,0.8064,0.8054,0.795,0,0,0,0,0,0.7458,0.7513,0.7573,0.764,0.7664,0.7709,0.7743,0.7761,0.7814,0.7835,0.7879,0.793,0.7987,0.8025,0.8082,0.8163,0.8177,0.8196,0.8201,0.8205,0.8212,0.8255,0.8263,0.8173,0.8173,0.8173,0,0,0.7477,0.7523,0.7556,0.764,0.7681,0.7736,0.7726,0.7787,0.7828,0.7845,0.7919,0.7952,0.8012,0.809,0.8127,0.812,0.8239,0.821,0.8213,0.8218,0.826,0.8268,0.8276,0.8176,0.8175,0.8175,0,0,0.7541,0.7581,0.764,0.768,0.774,0.7768,0.7782,0.7845,0.7867,0.7942,0.7954,0.8004,0.8104,0.8144,0.8178,0.8252,0.8259,0.8269,0.8295,0.8336,0.8343,0.835,0.8374,0.8383,0.8276,0.8276,0.8276,0,0.7558,0.7642,0.767,0.7729,0.7765,0.778,0.7839,0.7876,0.7952,0.7977,0.7967,0.8089,0.813,0.8217,0.8235,0.8262,0.8278,0.8262,0.834,0.8347,0.8353,0.8377,0.8386,0.8277,0.8277,0.8276,0.8276,0,0.7658,0.7716,0.7757,0.7827,0.7867,0.7927,0.7963,0.8001,0.8014,0.8043,0.8118,0.8167,0.8232,0.8254,0.827,0.8342,0.8336,0.8333,0.8316,0.8362,0.8385,0.8394,0.8278,0.8277,0.8277,0.8277,0,0,0.7727,0.7809,0.7823,0.7854,0.7919,0.7964,0.8022,0.8085,0.8115,0.8166,0.8215,0.8296,0.8292,0.833,0.835,0.8386,0.8438,0.8378,0.838,0.8386,0.8519,0.8521,0.8531,0.8443,0.8445,0.8446,0.8514,0,0.7797,0.7901,0.7926,0.8015,0.8068,0.808,0.8131,0.8176,0.8204,0.8252,0.8283,0.8339,0.8331,0.8353,0.839,0.8424,0.8465,0.842,0.8488,0.849,0.8473,0.8543,0.8547,0.8608,0.8523,0.8525,0.8526,0,0.7894,0.7944,0.8037,0.8092,0.8115,0.816,0.8217,0.8263,0.8314,0.8331,0.8371,0.8386,0.8446,0.8424,0.8506,0.8475,0.8504,0.8525,0.8528,0.8536,0.8511,0.8552,0.8628,0.8637,0.854,0.8539,0.8538,0,0.7933,0.8024,0.809,0.8116,0.8182,0.8213,0.8242,0.829,0.8325,0.8374,0.8397,0.8453,0.8484,0.8527,0.8556,0.8538,0.8635,0.8617,0.865,0.8649,0.8671,0.8669,0.8752,0.869,0.869,0.869,0.8689,0,0.8009,0.8065,0.8108,0.8149,0.8212,0.8239,0.83,0.833,0.8372,0.8418,0.8433,0.8476,0.8511,0.8559,0.8582,0.8645,0.8659,0.8674,0.8679,0.8673,0.8671,0.8693,0.8689,0.8692,0.8692,0.8691,0.8691,0,0.8064,0.8095,0.8168,0.8223,0.8238,0.8281,0.8328,0.8368,0.8394,0.8452,0.8468,0.851,0.8566,0.8598,0.867,0.8685,0.8755,0.8758,0.8737,0.874,0.8771,0.8767,0.8871,0.8885,0.8814,0.8814,0.8815,0,0.811,0.8153,0.8211,0.8242,0.8271,0.8322,0.8356,0.8384,0.8419,0.8477,0.8509,0.8566,0.8613,0.8701,0.8738,0.8792,0.8797,0.8829,0.8805,0.8796,0.8796,0.8793,0.8796,0.8834,0.8834,0.8835,0.8835,0,0.8189,0.8201,0.8249,0.8302,0.8341,0.8385,0.8428,0.8453,0.8487,0.8526,0.8582,0.8618,0.8689,0.8745,0.8801,0.883,0.8838,0.8842,0.8852,0.8846,0.8832,0.8838,0.8748,0.884,0.8839,0.8839,0.8839,0.8839,0.8241,0.8278,0.8324,0.8376,0.841,0.8449,0.8488,0.8518,0.8565,0.8625,0.8638,0.8697,0.8742,0.8818,0.8848,0.8894,0.8889,0.8904,0.8908,0.8912,0.8912,0.8824,0.8905,0.8905,0.8905,0.8905,0.8904,0,0.8319,0.8348,0.8395,0.8453,0.8494,0.8496,0.8542,0.8576,0.8628,0.8669,0.8713,0.8777,0.883,0.8869,0.8922,0.8951,0.8956,0.8964,0.8963,0.8969,0.8915,0.89,0.8959,0.8959,0.8959,0.8959,0.8959,0.8959,0.8365,0.8427,0.8444,0.8523,0.8552,0.8609,0.8635,0.867,0.8703,0.8772,0.8815,0.884,0.888,0.8935,0.8983,0.8993,0.9012,0.9019,0.903,0.8979,0.8973,0.8967,0.8953,0.9023,0.9023,0.908,0.908,0.9081]}]]